FW2338 Weather Reports


time (UTC)temp
C
wind
direction
speed
KPH
gust
KPH
rain 1hr
cm
rain 24hr
cm
rain mn
cm
humidity
%
barometer
mb
20260508145345 16 347 4.8 17.7 0.00 0.76 0.00 56 1018.1
20260508144843 16 82 6.4 12.9 0.00 0.76 0.00 58 1018.2
20260508144330 16 114 3.2 12.9 0.00 0.76 0.00 59 1018.3
20260508143830 16 29 3.2 12.9 0.00 0.79 0.00 59 1018.2
20260508143601 16 76 6.4 12.9 0.00 0.79 0.00 61 1018.2
20260508142832 16 75 8.0 12.9 0.00 0.79 0.00 62 1018.2
20260508142331 15 338 3.2 9.7 0.00 0.81 0.00 63 1018.3
20260508141830 15 86 6.4 9.7 0.00 0.84 0.00 64 1018.3
20260508141331 15 89 4.8 9.7 0.00 0.84 0.00 68 1018.2
20260508140830 15 5 4.8 9.7 0.00 0.84 0.00 62 1018.4
20260508140329 15 70 3.2 9.7 0.00 0.84 0.00 70 1018.2
20260508135830 15 43 3.2 8.0 0.00 0.84 0.00 73 1018.3
20260508135330 14 88 6.4 8.0 0.00 0.84 0.00 73 1018.4
20260508134832 14 75 0.0 9.7 0.00 0.84 0.00 77 1018.2
20260508134329 14 36 4.8 9.7 0.00 0.84 0.00 75 1018.1
20260508133830 13 19 4.8 9.7 0.00 0.86 0.00 76 1018.2
20260508133332 13 31 3.2 9.7 0.00 0.86 0.00 77 1018.2
20260508133134 13 29 8.0 9.7 0.00 0.86 0.00 77 1018.2
20260508132347 13 54 6.4 9.7 0.00 0.89 0.00 80 1018.1
20260508132339 13 32 6.4 9.7 0.00 0.89 0.00 78 1018.1
20260508131330 13 48 4.8 9.7 0.00 0.89 0.00 80 1018.3
20260508130831 12 75 6.4 8.0 0.00 0.94 0.00 84 1018.1
20260508130331 13 75 3.2 8.0 0.00 0.94 0.00 87 1017.9
20260508125830 12 76 0.0 8.0 0.00 0.94 0.00 85 1017.9
20260508125331 12 71 4.8 9.7 0.00 1.04 0.00 85 1017.9
20260508124830 12 64 4.8 9.7 0.00 1.17 0.00 86 1017.8
20260508124606 11 45 4.8 8.0 0.00 1.40 0.00 89 1017.6
20260508123830 11 50 6.4 9.7 0.00 1.65 0.00 93 1017.5
20260508123330 11 30 6.4 9.7 0.00 1.91 0.00 95 1017.5
20260508122832 11 37 6.4 9.7 0.00 2.18 0.00 97 1017.4
20260508122330 11 44 3.2 9.7 0.00 2.46 0.00 98 1017.5
20260508121830 11 30 1.6 9.7 0.00 2.72 0.00 99 1017.4
20260508121601 11 43 4.8 8.0 0.00 3.02 0.00 99 1017.4
20260508120830 11 39 4.8 6.4 0.00 3.20 0.00 99 1017.4
20260508120330 10 60 3.2 6.4 0.00 3.33 0.00 99 1017.3
20260508115830 10 64 4.8 6.4 0.00 3.40 0.00 99 1017.1
20260508115330 10 60 3.2 6.4 0.00 3.45 0.00 99 1017.3
20260508114832 10 60 3.2 6.4 0.00 3.63 0.00 99 1017.1
20260508114330 10 48 3.2 6.4 0.00 3.73 0.00 99 1017.0
20260508113830 10 27 3.2 6.4 0.00 3.73 0.00 99 1016.8
20260508113558 10 64 4.8 8.0 0.00 3.73 0.00 99 1016.8
20260508112829 10 34 4.8 8.0 0.00 3.73 0.00 99 1016.6
20260508112634 10 33 3.2 8.0 0.00 3.73 0.00 99 1016.8
20260508111830 10 54 6.4 8.0 0.00 3.73 0.00 99 1016.8
20260508111330 10 45 4.8 6.4 0.00 3.73 0.00 99 1016.7
20260508110834 10 56 4.8 6.4 0.00 3.73 0.00 99 1016.5
20260508110330 10 68 4.8 6.4 0.00 3.73 0.00 99 1016.6
20260508105830 10 90 3.2 4.8 0.00 3.73 0.00 99 1016.5
20260508105331 9 70 3.2 4.8 0.00 3.73 0.00 99 1016.2
20260508104830 10 60 3.2 4.8 0.00 3.73 0.00 99 1016.2
20260508104330 9 76 3.2 4.8 0.00 3.73 0.00 99 1015.9
20260508104105 10 91 3.2 6.4 0.00 3.73 0.00 99 1015.9
20260508103556 10 94 3.2 6.4 0.00 3.73 0.00 99 1015.8
20260508102831 10 73 4.8 6.4 0.00 3.73 0.00 99 1015.6
20260508102330 10 60 3.2 6.4 0.00 3.73 0.00 99 1015.4
20260508101830 10 46 4.8 4.8 0.00 3.73 0.00 99 1015.6
20260508101331 10 73 4.8 4.8 0.00 3.73 0.00 99 1015.8
20260508100830 10 42 3.2 4.8 0.00 3.76 0.00 99 1015.6
20260508100330 10 60 3.2 6.4 0.00 3.76 0.00 99 1015.5
20260508095830 10 79 3.2 6.4 0.00 3.76 0.00 99 1015.4
20260508095405 10 82 4.8 9.7 0.00 3.76 0.00 99 1015.2
20260508094330 10 52 4.8 6.4 0.00 3.78 0.00 99 1015.1
20260508093830 10 53 4.8 6.4 0.00 3.78 0.00 99 1015.5
20260508093332 11 73 3.2 3.2 0.00 3.81 0.00 99 1015.4
20260508092830 11 113 3.2 3.2 0.00 3.86 0.00 99 1015.4
20260508092556 10 60 3.2 3.2 0.00 3.86 0.00 99 1015.2
20260508091832 11 60 0.0 4.8 0.00 3.86 0.00 99 1015.2
20260508091330 10 60 3.2 4.8 0.00 3.89 0.00 99 1015.0
20260508090828 10 81 3.2 3.2 0.00 3.89 0.00 99 1015.2
20260508090328 10 60 3.2 3.2 0.00 3.89 0.00 99 1015.1
20260508085829 10 101 0.0 3.2 0.00 3.89 0.00 99 1015.4
20260508085601 10 68 1.6 4.8 0.00 3.91 0.00 99 1015.1
20260508084830 11 67 0.0 4.8 0.00 3.94 0.00 99 1015.1
20260508084329 10 95 3.2 4.8 0.00 3.96 0.00 99 1015.0
20260508084100 11 76 1.6 3.2 0.00 3.96 0.00 99 1015.1
20260508083330 11 90 1.6 4.8 0.00 3.99 0.00 99 1014.9
20260508082829 11 84 3.2 4.8 0.00 4.01 0.00 99 1015.0
20260508082329 11 73 3.2 4.8 0.00 4.04 0.00 99 1014.8
20260508081828 11 87 3.2 4.8 0.00 4.04 0.00 99 1014.8
20260508081328 11 101 3.2 3.2 0.00 4.06 0.00 99 1014.7
20260508080830 11 69 0.0 3.2 0.00 4.11 0.00 99 1014.7
20260508080329 11 60 1.6 4.8 0.00 4.17 0.00 99 1014.6
20260508075826 11 96 3.2 4.8 0.00 4.22 0.00 99 1014.5
20260508075600 11 69 3.2 4.8 0.00 4.27 0.00 99 1014.6
20260508074828 11 81 0.0 4.8 0.00 4.32 0.00 99 1014.7
20260508074327 11 110 3.2 4.8 0.00 4.37 0.00 99 1014.4
20260508074059 11 87 4.8 4.8 0.00 4.39 0.00 99 1014.2
20260508073327 11 81 3.2 4.8 0.00 4.47 0.00 99 1014.4
20260508072831 11 60 1.6 4.8 0.00 4.57 0.00 99 1014.3
20260508072326 11 79 3.2 4.8 0.00 4.67 0.00 99 1014.5
20260508071827 11 45 1.6 3.2 0.00 4.75 0.00 99 1014.3
20260508071327 11 87 3.2 3.2 0.00 4.83 0.00 99 1014.2
20260508070828 11 93 0.0 4.8 0.00 4.93 0.00 99 1014.3
20260508070327 11 39 3.2 4.8 0.00 5.08 0.00 99 1014.5
20260508065827 11 60 0.0 4.8 0.00 5.21 0.00 99 1014.4
20260508065328 11 76 1.6 4.8 0.00 5.31 0.00 99 1014.3
20260508064827 11 60 0.0 4.8 0.00 5.46 0.00 99 1014.0
20260508064326 11 60 1.6 4.8 0.00 5.61 0.00 99 1014.2
20260508063827 11 60 3.2 4.8 0.00 5.82 0.00 99 1014.1
20260508063334 12 82 3.2 3.2 0.00 6.12 0.00 99 1014.1
20260508063057 12 130 3.2 3.2 0.00 6.43 0.00 99 1014.4
20260508062327 12 140 0.0 3.2 0.00 6.65 0.00 99 1014.3
20260508061826 12 142 0.0 3.2 0.00 6.73 0.00 99 1014.3
20260508061328 12 101 0.0 3.2 0.00 6.91 0.00 99 1014.6
20260508060826 12 60 0.0 3.2 0.00 7.06 0.00 99 1014.4
20260508060557 12 118 0.0 3.2 0.00 7.37 0.00 99 1014.3
20260508055827 12 60 3.2 4.8 0.00 7.52 0.00 99 1014.3
20260508055327 12 93 3.2 4.8 0.00 7.57 0.00 99 1014.4
20260508055100 12 81 0.0 4.8 0.00 7.57 0.00 99 1014.5
20260508054327 12 118 3.2 4.8 0.00 7.57 0.00 99 1014.4
20260508054100 12 60 3.2 6.4 0.00 7.57 0.00 99 1014.4
20260508053327 12 36 3.2 6.4 0.00 7.57 0.00 99 1014.3
20260508052828 12 86 6.4 6.4 0.00 7.57 0.00 99 1014.4
20260508052327 12 105 0.0 4.8 0.00 7.57 0.00 99 1014.2
20260508052101 12 138 0.0 4.8 0.00 7.57 0.00 99 1014.0
20260508051306 12 60 1.6 4.8 0.00 7.57 0.00 99 1014.3
20260508051036 12 120 3.2 6.4 0.00 7.57 0.00 99 1014.1
20260508050305 12 108 4.8 6.4 0.00 7.57 0.00 99 1014.4
20260508045804 12 117 0.0 6.4 0.00 7.57 0.00 99 1014.2
20260508045319 12 94 3.2 6.4 0.00 7.57 0.00 99 1014.1
20260508044815 12 30 0.0 6.4 0.00 7.57 0.00 99 1014.0
20260508044306 12 84 1.6 6.4 0.00 7.57 0.00 99 1014.1
20260508043803 13 41 0.0 4.8 0.00 7.57 0.00 99 1013.8
20260508043305 13 90 1.6 4.8 0.00 7.57 0.00 99 1014.0
20260508043041 13 110 3.2 4.8 0.00 7.57 0.00 99 1013.6
20260508042307 13 173 0.0 9.7 0.00 7.57 0.00 99 1013.9
20260508041803 13 73 3.2 9.7 0.00 7.57 0.00 99 1013.9
20260508041305 13 97 4.8 9.7 0.00 7.57 0.00 99 1013.8
20260508040804 13 127 3.2 9.7 0.00 7.57 0.00 99 1013.8
20260508040305 13 115 0.0 9.7 0.00 7.57 0.00 99 1013.7
20260508035804 13 65 0.0 8.0 0.00 7.59 7.57 99 1013.6
20260508035306 13 136 3.2 11.3 0.00 7.59 7.57 99 1013.8
20260508034805 13 348 3.2 12.9 0.00 7.59 7.57 99 1013.6
20260508034306 13 84 3.2 12.9 0.00 7.62 7.57 99 1013.5
20260508033805 13 49 4.8 12.9 0.00 7.62 7.57 99 1013.7
20260508033306 13 73 6.4 9.7 0.00 7.62 7.57 99 1013.6
20260508033035 13 118 3.2 9.7 0.00 7.65 7.57 99 1013.8
20260508032306 13 90 0.0 9.7 0.00 7.67 7.57 99 1013.7
20260508031806 13 36 3.2 3.2 0.00 7.72 7.57 99 1013.8
20260508031305 13 72 3.2 3.2 0.00 7.77 7.57 99 1013.6
20260508031047 13 84 1.6 3.2 0.00 7.85 7.57 99 1013.8
20260508030306 13 84 0.0 4.8 0.00 8.08 7.57 99 1013.7
20260508025804 13 93 0.0 4.8 0.00 8.18 7.57 99 1013.5
20260508025306 13 73 3.2 4.8 0.00 8.23 7.57 99 1013.4
20260508025035 13 90 1.6 4.8 0.00 8.33 7.57 99 1013.5
20260508024305 13 84 1.6 4.8 0.00 8.41 7.57 99 1013.4
20260508023807 13 85 3.2 4.8 0.00 8.51 7.57 99 1013.4
20260508023536 13 79 3.2 4.8 0.00 8.59 7.57 99 1013.4
20260508022805 13 69 1.6 6.4 0.00 8.66 7.57 99 1013.3
20260508022307 13 51 0.0 6.4 0.00 8.71 7.57 99 1013.2
20260508021804 13 60 4.8 4.8 0.00 8.76 7.57 99 1013.0
20260508021306 13 45 0.0 6.4 0.00 8.81 7.57 99 1013.1
20260508020806 13 83 3.2 6.4 0.00 8.84 7.57 99 1013.0
20260508020306 13 79 3.2 4.8 0.00 8.89 7.57 99 1013.0
20260508020037 13 79 3.2 4.8 0.00 9.07 7.57 99 1012.9
20260508015306 13 80 3.2 4.8 0.00 9.17 7.57 99 1012.7
20260508014805 13 81 0.0 4.8 0.00 9.19 7.57 99 1012.5
20260508014305 13 85 3.2 4.8 0.00 9.22 7.57 99 1012.7
20260508013804 13 89 3.2 6.4 0.00 9.22 7.57 99 1012.5
20260508013305 13 79 3.2 6.4 0.00 9.22 7.57 99 1012.5
20260508012805 13 74 4.8 9.7 0.00 9.22 7.57 99 1012.5
20260508012307 13 69 3.2 9.7 0.00 9.22 7.57 99 1012.0
20260508011805 13 57 6.4 9.7 0.00 9.22 7.57 99 1012.3
20260508011305 13 72 6.4 9.7 0.00 9.27 7.57 99 1012.2
20260508010815 13 101 0.0 8.0 0.03 9.47 7.57 99 1012.2
20260508010809 13 54 6.4 6.4 0.00 9.30 7.57 99 1012.4
20260508005805 13 71 3.2 8.0 0.03 9.73 7.57 99 1012.1
20260508005306 13 80 3.2 8.0 0.05 9.75 7.57 99 1011.9
20260508004805 13 73 6.4 9.7 0.05 9.75 7.57 99 1011.5
20260508004305 14 67 6.4 9.7 0.08 9.75 7.57 99 1011.7
20260508004037 13 105 4.8 11.3 0.15 9.75 7.57 99 1011.8
20260508003306 14 74 6.4 11.3 0.30 9.75 7.57 99 1011.5
20260508002805 14 79 3.2 11.3 0.51 9.75 7.57 98 1011.5
20260508002307 14 57 6.4 16.1 0.71 9.75 7.57 98 1011.4
20260508001803 13 57 8.0 16.1 0.74 9.75 7.57 98 1011.0
20260508001307 14 15 4.8 14.5 0.74 9.75 7.57 98 1010.8
20260508000804 13 77 8.0 14.5 0.74 9.75 7.57 98 1010.6
20260508000305 14 53 9.7 16.1 0.71 9.75 7.54 98 1010.7
20260507235805 14 78 8.0 16.1 0.71 9.04 7.54 98 1010.2
20260507235307 14 46 6.4 14.5 0.71 9.04 7.54 97 1010.0
20260507234804 14 16 11.3 14.5 0.69 9.04 7.52 97 1010.1
20260507234305 14 40 11.3 14.5 0.66 9.04 7.49 97 1009.7
20260507233804 14 64 11.3 14.5 0.58 9.04 7.42 96 1009.7
20260507233533 14 55 8.0 17.7 0.43 9.04 7.24 95 1009.8
20260507233030 15 97 3.2 17.7 0.20 9.04 7.01 94 1010.0
20260507232306 15 40 8.0 24.1 0.00 9.04 6.83 93 1010.2
20260507231805 15 77 8.0 30.6 0.00 9.04 6.83 91 1009.0
20260507231305 15 26 14.5 30.6 0.00 9.04 6.83 90 1009.4
20260507230804 15 29 14.5 27.4 0.00 9.04 6.83 90 1009.2
20260507230305 15 56 11.3 30.6 0.00 9.04 6.83 90 1009.5
20260507225804 15 38 11.3 30.6 0.00 9.04 6.83 90 1009.3
20260507225536 16 94 9.7 37.0 0.00 9.04 6.83 90 1009.1
20260507224804 16 47 17.7 38.6 0.00 9.04 6.83 89 1008.9
20260507224305 16 64 12.9 38.6 0.00 9.04 6.83 89 1008.6
20260507223805 16 4 24.1 38.6 0.00 9.04 6.83 89 1008.8
20260507223305 16 12 11.3 33.8 0.00 9.04 6.83 88 1008.5
20260507222804 17 80 14.5 62.8 0.00 9.04 6.83 88 1008.2
20260507222310 17 354 19.3 62.8 0.00 9.04 6.83 86 1008.6
20260507221804 18 30 9.7 45.1 0.00 9.04 6.83 83 1008.3
20260507221306 20 20 14.5 17.7 0.00 9.04 6.83 78 1008.1
20260507220804 23 312 3.2 9.7 0.00 9.04 6.83 75 1007.6
20260507220306 23 253 6.4 8.0 0.00 9.04 6.83 74 1007.5
20260507215805 24 240 3.2 8.0 0.00 9.04 6.83 73 1007.4
20260507215307 24 218 3.2 8.0 0.00 9.04 6.83 72 1007.1
20260507214804 24 176 3.2 8.0 0.00 9.04 6.83 74 1007.1
20260507214305 24 233 3.2 11.3 0.00 9.04 6.83 72 1007.2
20260507214036 24 222 6.4 12.9 0.00 9.04 6.83 72 1007.1
20260507213536 24 210 6.4 12.9 0.00 9.04 6.83 71 1006.9
20260507212804 24 225 0.0 12.9 0.00 9.04 6.83 70 1006.9
20260507212308 24 195 0.0 12.9 0.00 9.04 6.83 70 1007.0
20260507212034 23 227 3.2 12.9 0.00 9.04 6.83 71 1007.1
20260507211534 24 304 3.2 8.0 0.00 9.04 6.83 72 1007.1
20260507211044 23 211 3.2 9.7 0.00 9.04 6.83 72 1006.8
20260507210305 24 232 3.2 9.7 0.00 9.04 6.83 70 1007.0
20260507205805 25 259 9.7 9.7 0.00 9.04 6.83 69 1007.3
20260507205307 25 256 8.0 8.0 0.00 9.04 6.83 70 1007.1
20260507204804 24 150 0.0 9.7 0.00 9.04 6.83 70 1007.2
20260507204305 24 64 4.8 9.7 0.00 9.04 6.83 71 1007.1
20260507203804 23 224 0.0 8.0 0.00 9.04 6.83 72 1007.1
20260507203305 23 262 3.2 9.7 0.00 9.04 6.83 74 1007.0
20260507202804 23 209 4.8 9.7 0.00 9.04 6.83 72 1007.3
20260507202307 23 199 3.2 9.7 0.00 9.04 6.83 71 1007.0
20260507201804 24 216 1.6 6.4 0.00 9.04 6.83 73 1007.3
20260507201535 23 240 0.0 6.4 0.00 9.04 6.83 73 1007.3
20260507201032 24 210 3.2 11.3 0.00 9.04 6.83 73 1007.2
20260507200611 23 233 0.0 11.3 0.00 9.04 6.83 72 1007.4
20260507195805 23 210 3.2 9.7 0.00 9.04 6.83 72 1007.5
20260507195306 23 220 3.2 9.7 0.00 9.04 6.83 76 1007.6
20260507195038 23 282 4.8 8.0 0.00 9.04 6.83 75 1007.7
20260507194305 23 264 4.8 8.0 0.00 9.04 6.83 76 1008.0
20260507193804 23 224 0.0 9.7 0.00 9.04 6.83 75 1008.3
20260507193307 23 240 3.2 9.7 0.00 9.04 6.83 75 1008.2
20260507192817 23 121 0.0 9.7 0.00 9.04 6.83 76 1008.4
20260507192810 23 330 1.6 9.7 0.00 9.04 6.83 79 1008.1
20260507191805 23 231 0.0 9.7 0.00 9.04 6.83 79 1008.2
20260507191306 23 256 1.6 6.4 0.00 9.04 6.83 83 1008.4
20260507190804 22 336 0.0 6.4 0.00 9.04 6.83 84 1008.4
20260507190305 21 281 3.2 8.0 0.00 9.04 6.83 84 1008.3
20260507185805 21 270 3.2 8.0 0.00 9.04 6.83 85 1008.3
20260507185318 21 301 0.0 9.7 0.00 9.04 6.83 85 1008.4
20260507184805 20 240 1.6 9.7 0.00 9.04 6.83 88 1008.1
20260507184306 20 204 3.2 9.7 0.00 9.04 6.83 96 1008.2
20260507183803 20 198 3.2 8.0 0.00 9.07 6.83 99 1008.4
20260507183308 19 225 0.0 6.4 0.00 9.07 6.83 99 1008.3
20260507182804 20 60 0.0 8.0 0.00 9.07 6.83 99 1008.3
20260507182307 20 209 0.0 8.0 0.00 9.07 6.83 99 1008.2
20260507181805 20 55 0.0 6.4 0.00 9.09 6.83 99 1008.1
20260507181308 20 75 3.2 4.8 0.00 9.19 6.83 99 1008.3
20260507180805 19 324 3.2 8.0 0.00 9.32 6.83 99 1008.2
20260507180305 19 253 3.2 8.0 0.00 9.32 6.83 99 1008.7
20260507175804 19 30 0.0 8.0 0.00 9.32 6.83 99 1008.5
20260507175307 19 204 0.0 8.0 0.00 9.32 6.83 99 1008.8
20260507174804 19 210 1.6 6.4 0.00 9.32 6.83 99 1008.9
20260507174305 18 39 3.2 6.4 0.00 9.32 6.83 99 1009.1
20260507173806 18 198 0.0 6.4 0.00 9.32 6.83 99 1009.0
20260507173305 18 225 0.0 6.4 0.00 9.32 6.83 99 1009.1
20260507172804 19 227 3.2 6.4 0.00 9.32 6.83 99 1009.1
20260507172307 19 199 0.0 6.4 0.00 9.32 6.83 99 1009.0
20260507171804 19 170 3.2 9.7 0.00 9.32 6.83 99 1008.9
20260507171306 19 60 4.8 9.7 0.00 9.32 6.83 99 1008.8
20260507170818 19 236 4.8 6.4 0.00 9.32 6.83 99 1008.7
20260507170811 19 292 6.4 9.7 0.00 9.32 6.83 99 1009.0
20260507165805 19 170 3.2 6.4 0.00 9.32 6.83 99 1008.9
20260507165306 19 195 0.0 6.4 0.00 9.32 6.83 99 1008.7
20260507164804 19 162 3.2 6.4 0.00 9.32 6.83 99 1008.9
20260507164305 18 117 4.8 6.4 0.00 9.32 6.83 99 1009.2
20260507163804 18 130 0.0 6.4 0.00 9.32 6.83 99 1009.5
20260507163306 18 176 0.0 4.8 0.00 9.32 6.83 99 1009.4
20260507163107 18 224 0.0 6.4 0.00 9.32 6.83 99 1009.5
20260507162307 18 240 3.2 6.4 0.00 9.32 6.83 99 1009.5
20260507161805 18 231 1.6 4.8 0.00 9.32 6.83 99 1009.4
20260507161539 18 190 0.0 4.8 0.00 9.32 6.83 99 1009.1
20260507160804 18 216 1.6 4.8 0.00 9.32 6.83 99 1009.5
20260507160305 18 182 0.0 4.8 0.00 9.32 6.83 99 1009.3
20260507155804 19 210 1.6 4.8 0.00 9.32 6.83 99 1009.1
20260507155306 18 158 0.0 4.8 0.03 9.32 6.83 99 1008.5
20260507154804 18 130 3.2 4.8 0.03 9.32 6.83 99 1008.4
20260507154305 18 185 0.0 4.8 0.05 9.32 6.83 99 1008.4
20260507153804 18 150 0.0 4.8 0.05 9.32 6.83 99 1008.1
20260507153306 18 150 0.0 3.2 0.05 9.32 6.83 99 1008.4
20260507152804 18 150 0.0 3.2 0.05 9.32 6.83 99 1008.3
20260507152318 18 231 0.0 3.2 0.10 9.32 6.83 99 1008.4
20260507152308 18 240 1.6 3.2 0.10 9.32 6.83 99 1008.6
20260507151305 18 240 0.0 3.2 0.10 9.32 6.83 99 1008.6
20260507150813 18 240 0.0 4.8 0.10 9.32 6.83 99 1009.3
20260507150806 18 319 0.0 3.2 0.10 9.32 6.83 99 1008.7
20260507145836 18 249 0.0 4.8 0.10 9.22 6.83 99 1009.9